Weather History for KTBN - February, 2012

Change the Weather History Date:

Tuesday, February 28, 2012

  Actual Average Record
Temperature  
Mean Temperature 50 °F -  
Max Temperature 63 °F 46 °F 77 °F (2006)
Min Temperature 37 °F 31 °F 17 °F (2009)
Degree Days  
Heating Degree Days 15    
Moisture  
Dew Point 42 °F    
Average Humidity 65    
Maximum Humidity 94    
Minimum Humidity 45    
Precipitation  
Precipitation 0.00 in - - ()
Sea Level Pressure  
Sea Level Pressure 30.01 in    
Wind  
Wind Speed 12 mph (SSE)    
Max Wind Speed 21 mph    
Max Gust Speed 33 mph    
Visibility 10 miles    
Events      
Averages and records for this station are not official NWS values.
T = Trace of Precipitation, MM = Missing Value Source: NWS Daily Summary

Daily Weather History Graph

Daily Weather History Graph

Search for Another Location

Airport or City:

Trip Planner

Search our weather history database for the weather conditions in past years. The results will help you decide how hot, cold, wet, or windy it might be!

Date:

Astronomy

Feb. 28, 2012 Rise Set
Actual Time 6:42 AM CST 6:00 PM CST
Civil Twilight 6:15 AM CST 6:27 PM CST
Nautical Twilight 5:45 AM CST 6:57 PM CST
Astronomical Twilight 5:15 AM CST 7:27 PM CST
Moon 9:57 AM CST (2/28) No Moon Set
Length of Visible Light 12h 11m
Length of Day
11h 18m
Waxing Crescent, 38% of the Moon is Illuminated
Feb 28
Waxing Crescent
Feb 29
First Quarter
Mar 8
Full
Mar 14
Last Quarter
Mar 22
New

Hourly Weather History & Observations

Time (CST) Temp. Windchill Dew Point Humidity Pressure Visibility Wind Dir Wind Speed Gust Speed Precip Events Conditions
12:55 AM 39.9 °F 35.1 °F 21.9 °F 49% 30.33 in 10.0 mi East 6.9 mph - N/A   Scattered Clouds
1:55 AM 38.8 °F 34.6 °F 22.3 °F 51% 30.33 in 10.0 mi East 5.8 mph - N/A   Mostly Cloudy
2:55 AM 38.5 °F 31.6 °F 22.8 °F 53% 30.31 in 10.0 mi ESE 10.4 mph - N/A   Mostly Cloudy
3:55 AM 37.9 °F 30.5 °F 23.4 °F 56% 30.28 in 10.0 mi SE 11.5 mph - N/A   Scattered Clouds
4:55 AM 39.2 °F 31.2 °F 24.4 °F 56% 30.27 in 10.0 mi SE 13.8 mph - N/A   Mostly Cloudy
5:55 AM 40.1 °F 32.0 °F 24.8 °F 54% 30.25 in 10.0 mi SE 15.0 mph - N/A   Overcast
6:55 AM 41.7 °F 34.8 °F 24.8 °F 51% 30.23 in 10.0 mi SE 12.7 mph - N/A   Overcast
7:55 AM 43.7 °F 37.3 °F 25.3 °F 48% 30.23 in 10.0 mi SE 12.7 mph - N/A   Overcast
8:55 AM 48.4 °F - 28.0 °F 45% 30.21 in 10.0 mi SSE 13.8 mph 20.7 mph N/A   Mostly Cloudy
9:55 AM 50.9 °F - 32.4 °F 49% 30.19 in 10.0 mi SSE 10.4 mph - N/A   Overcast
10:40 AM 51.8 °F - 33.8 °F 50% 30.18 in 10.0 mi SE 10.4 mph - N/A   Overcast
10:55 AM 53.4 °F - 34.0 °F 48% 30.17 in 10.0 mi SE 9.2 mph - N/A   Overcast
11:55 AM 56.1 °F - 37.2 °F 49% 30.14 in 10.0 mi SSE 6.9 mph - N/A   Overcast
12:33 PM 59.0 °F - 41.0 °F 51% 30.09 in 10.0 mi SSE 12.7 mph - N/A   Overcast
12:34 PM 59.0 °F - 41.0 °F 51% 30.09 in 10.0 mi SSE 13.8 mph - N/A   Overcast
12:55 PM 61.0 °F - 42.8 °F 51% 30.06 in 10.0 mi SE 13.8 mph - N/A   Overcast
1:55 PM 63.7 °F - 48.4 °F 57% 30.00 in 10.0 mi SSE 16.1 mph - N/A   Mostly Cloudy
2:55 PM 63.0 °F - 50.2 °F 63% 29.95 in 10.0 mi SSE 13.8 mph 28.8 mph N/A   Overcast
3:55 PM 63.9 °F - 48.9 °F 58% 29.91 in 10.0 mi SSE 18.4 mph 26.5 mph N/A   Overcast
4:55 PM 63.0 °F - 50.0 °F 63% 29.88 in 10.0 mi SSE 15.0 mph 21.9 mph N/A   Overcast
5:55 PM 61.9 °F - 50.9 °F 67% 29.86 in 10.0 mi SSE 15.0 mph 20.7 mph N/A   Overcast
6:55 PM 60.4 °F - 55.0 °F 82% 29.84 in 10.0 mi SSE 18.4 mph 24.2 mph N/A   Overcast
7:09 PM 59.0 °F - 55.4 °F 88% 29.84 in 10.0 mi SSE 16.1 mph 26.5 mph N/A   Overcast
7:55 PM 58.3 °F - 56.7 °F 94% 29.83 in 10.0 mi South 11.5 mph 27.6 mph N/A   Overcast
8:55 PM 59.0 °F - 56.5 °F 91% 29.81 in 10.0 mi South 12.7 mph 23.0 mph N/A   Overcast
9:55 PM 59.7 °F - 57.4 °F 92% 29.76 in 10.0 mi South 15.0 mph 24.2 mph N/A   Overcast
10:55 PM 60.6 °F - 59.0 °F 94% 29.69 in 10.0 mi South 16.1 mph 28.8 mph N/A   Overcast
11:32 PM 62.6 °F - 59.0 °F 88% 29.65 in 10.0 mi South 15.0 mph 33.4 mph N/A   Overcast
11:35 PM 62.6 °F - 59.0 °F 88% 29.63 in 10.0 mi South 20.7 mph 28.8 mph N/A   Overcast
11:44 PM 62.6 °F - 59.0 °F 88% 29.62 in 10.0 mi South 16.1 mph 28.8 mph N/A   Overcast
11:55 PM 62.6 °F - 59.7 °F 90% 29.62 in 10.0 mi South 17.3 mph 28.8 mph N/A   Overcast